Simultaneous Nadir Overpasses (SNOs) Predictions

Prediction of SNOs between NOAA-21 and PACE Satellite Orbit:

Table of predicted SNOs for the next 14.0 days since TLE Epoch: 7/26/2024
Index Date (NOAA-21) Time (NOAA-21) Lat,Lon (NOAA-21) SZA (NOAA-21 ) Date (PACE) Time (PACE) Lat,Lon (PACE) SZA (PACE ) Distance(km) Time Diff (sec)
1 07/27/2024 06:55:16 79.79, 39.19 63.05 07/27/2024 06:55:10 79.78, 39.34 63.03 3.18 6
2 07/29/2024 10:31:02 -79.89, 164.28 116.26 07/29/2024 10:31:56 -79.89, 164.37 116.31 2.02 54
3 07/29/2024 11:21:41 79.71, -26.67 63.41 07/29/2024 11:21:01 79.71, -26.59 63.42 1.70 40
4 07/31/2024 14:57:26 -79.79, 98.70 115.93 07/31/2024 14:57:46 -79.80, 98.58 115.92 2.54 20
5 07/31/2024 15:47:28 78.27, -83.12 61.65 07/31/2024 15:46:15 78.12, -83.98 61.64 25.92 73
6 08/02/2024 19:23:53 -79.77, 32.22 115.41 08/02/2024 19:23:37 -79.76, 32.35 115.42 2.78 16
7 08/04/2024 22:59:38 79.86, 157.50 65.32 08/04/2024 23:00:22 79.86, 157.45 65.30 1.07 44
8 08/04/2024 23:50:16 -79.64, -33.17 115.08 08/04/2024 23:49:25 -79.64, -33.24 115.04 1.39 51
9 08/07/2024 03:26:02 79.76, 91.80 65.73 08/07/2024 03:26:10 79.77, 91.70 65.74 1.95 8
10 08/09/2024 07:01:50 -79.93,-143.79 113.35 08/09/2024 07:02:55 -79.93,-143.71 113.39 1.48 65



Historial Predications of SNOs between NOAA-21 and PACE
